Regional Weather Roundup
Issued by NWS Upton, NY

Current Version | Previous Version | Graphics & Text | Print | Product List | Glossary Off
Versions: 1 2 3 4 5 6 7 8 9 10 11 12 13 14 15 16 17 18 19 20 21 22 23 24 25 26 27 28 29 30 31 32 33 34 35 36 37 38 39 40 41 42 43 44 45 46 47 48 49 50

000
ASUS41 KOKX 291218
RWROKX

REGIONAL WEATHER ROUNDUP
NATIONAL WEATHER SERVICE NEW YORK NY
800 AM EDT FRI MAY 29 2015

NOTE: "FAIR" INDICATES FEW OR NO CLOUDS BELOW 12,000 FEET WITH NO
SIGNIFICANT WEATHER AND/OR OBSTRUCTIONS TO VISIBILITY.

NYZ071-072-176-178-NJZ106-104-291300-
NEW YORK CITY METRO AREA


CITY           SKY/WX    TMP DP  RH WIND       PRES   REMARKS
CENTRAL PARK   SUNNY     68  54  60 VRB5      30.33R
LAGUARDIA APRT SUNNY     67  54  63 NE8       30.30R
KENNEDY INTL   MOSUNNY   70  54  56 N12       30.30R
NEWARK/LIBERTY MOSUNNY   70  56  61 N12       30.30R
BRNX BOT. GARD   N/A     70  54  56 SE1       30.32R
TETERBORO      SUNNY     68  55  63 N7        30.29S
$$

NYZ177-179-078>081-291300-
LONG ISLAND NEW YORK

CITY           SKY/WX    TMP DP  RH WIND       PRES   REMARKS
FARMINGDALE    SUNNY     67  56  67 NE9       30.29S
ISLIP          MOSUNNY   68  56  65 N9        30.28R
SHIRLEY        SUNNY     67  56  67 N7        30.30R
WESTHAMPTON    SUNNY     67  57  70 N10       30.30R
MONTAUK POINT    N/A     63  56  78 N5        30.30R
$$

NYZ052-065-067-291300-
HUDSON VALLEY

CITY           SKY/WX    TMP DP  RH WIND       PRES   REMARKS
WHITE PLAINS   SUNNY     67  55  65 NE7       30.30R
NEWBURGH       SUNNY     63  57  82 VRB5      30.33S
MONTGOMERY     SUNNY     62  57  83 CALM      30.32S
POUGHKEEPSIE   SUNNY     64  56  75 CALM      30.31S
ALBANY         MOSUNNY   64  55  72 CALM      30.34R
$$

NJZ001-105-106-008-010-013-015-019>022-104-291300-
NEW JERSEY

CITY           SKY/WX    TMP DP  RH WIND       PRES   REMARKS
NEWARK/LIBERTY MOSUNNY   70  56  61 N12       30.30R
TETERBORO      SUNNY     68  55  63 N7        30.29S
CALDWELL       SUNNY     66  55  67 CALM      30.31R
MORRISTOWN     SUNNY     68  61  77 E5        30.31R
SOMERVILLE     SUNNY     66  55  67 CALM      30.28S
SUSSEX         SUNNY     60  55  83 CALM      30.33S
ANDOVER          N/A     61  56  83 NE3       30.32S
TRENTON        SUNNY     69  55  60 NE9       30.29R
MILLVILLE      MOSUNNY   70  56  61 NE10      30.28R
ATLANTIC CITY  SUNNY     69  57  65 NE8       30.28R
WRIGHTSTOWN    SUNNY     68  57  68 NE9       30.26S
TOMS RIVER     SUNNY    N/A N/A N/A NE8       30.29R
BELMAR         SUNNY     70  52  52 NE12      30.29S
$$

PAZ047>061-062-071-291300-
EASTERN PENNSYLVANIA

CITY           SKY/WX    TMP DP  RH WIND       PRES   REMARKS
PHILADELPHIA   MOSUNNY   72  55  55 NE8       30.29R
ALLENTOWN      SUNNY     66  54  65 E6        30.32R
SCRANTON       SUNNY     63  53  70 NE3       30.33R
$$

CTZ002-004>006-009-010-012-RIZ004-006-007-MAZ004-011-015-291300-
SOUTHERN NEW ENGLAND
 IN CT

CITY           SKY/WX    TMP DP  RH WIND       PRES   REMARKS
BRADLEY INTL   MOSUNNY   66  56  70 VRB3      30.30S
HARTFORD       SUNNY     65  55  70 VRB5      30.31R
DANBURY        SUNNY     65  56  72 CALM      30.33S
WTRBRY/OXFORD  SUNNY     63  54  72 NE9       30.33S
BRIDGEPORT     SUNNY     68  57  68 NE8       30.30R
MERIDEN        SUNNY     68  55  63 N7        30.31R
NEW HAVEN      SUNNY     67  55  65 N14       30.29S
CHESTER        FAIR      66  55  68 N9        30.31S
GROTON         SUNNY     67  56  67 N10       30.28R
WILLIMANTIC    SUNNY     65  56  72 N3        30.31R

 IN RI

CITY           SKY/WX    TMP DP  RH WIND       PRES   REMARKS
PROVIDENCE     MOSUNNY   69  56  62 N7        30.29R
BLOCK ISLAND   SUNNY     64  55  72 N6        30.29S
WESTERLY       MOSUNNY   69  58  67 N6        30.29R

 IN MA

CITY           SKY/WX    TMP DP  RH WIND       PRES   REMARKS
BOSTON         MOSUNNY   70  57  63 N6        30.29R
WORCESTER      SUNNY     66  54  65 N8        30.32R
WESTFIELD      SUNNY     65  56  72 CALM      30.31R
PROVINCETOWN   SUNNY     63  54  72 NW6       30.29R
NANTUCKET      SUNNY     70  58  65 N6        30.27S
$$

ANZ330-335-338-340-345-350-353-355-291300-
COASTAL MARINE OBSERVATIONS


STATION/POSITION TIME  SKY/WX   TEMP    WIND        PRES    VSBY  WAVE
                                AIR SEA DIR/SP/G                  HT/PER
                 (UTC)          (F)     (DEG/KT/KT) (MB)    (MI)  (FT/S)
NY HARB ENTRANCE 1150            59 58  360/  6/  6 1025.2          2/ 8
4S FIRE IS       1103               57                N/A           3/ 8
20S FIRE ISLAND  1150            60 57  360/  6/  8 1025.2          3/ 8
GREAT SOUTH BAY  1115            65 67   20/  8/ 10   N/A
23SW MTP         1150            57 54   30/  6/  6 1024.9          3/ 9
HUDSON CANYON    NOT AVBL
KINGS POINT      1100            61 54   20/  4/  6 1025.3
CENTRAL LI SOUND 1130            60 58  350/  4/  4   N/A
EASTERN LI SOUND 1100            60      20/  4/  4   N/A
ROBBINS REEF     1100            66     360/  9/ 11 1024.6
$$


>>>>>>>>>>>>>>>>>>>>>>>>>>>> KEY <<<<<<<<<<<<<<<<<<<<<<<<<<<
>                                                          <
>     SKY/WX - SKY CONDITION/PRESENT WEATHER               <
>     TMP    - TEMPERATURE IN FAHRENHEIT                   <
>     DP     - DEWPOINT IN FAHRENHEIT                      <
>     RH     - RELATIVE HUMIDITY IN PERCENT                <
>     WIND   - DIRECTION AND SPEED IN MPH                  <
>     PRES   - MEAN SEA LEVEL PRESSURE IN INCHES OF HG     <
>     WCI    - WIND CHILL INDEX                            <
>     VSB    - VISIBILITY IN MILES                         <
>     HX     - HEAT INDEX                                  <
>     TC     - TEMPERATURE IN CELSIUS                      <
>     VRB    - VARIABLE WIND DIRECTION                     <
>                                                          <
>>>>>>>>>>>>>>>>>>>>>>>>>>>> KEY <<<<<<<<<<<<<<<<<<<<<<<<<<<





USA.gov is the U.S. government's official web portal to all federal, state and local government web resources and services.